Holyoke AP, Holyoke, CO, CO

12:22 PM MDT on April 23, 2017 (GMT -0600)
Holyoke Municipal

Weather History for KHEQ - April, 2014

Change the Weather History Date:

Wednesday, April 30, 2014

  Actual Average Record
Temperature  
Mean Temperature 47 °F -  
Max Temperature 59 °F 66 °F 78 °F (2015)
Min Temperature 35 °F 38 °F 33 °F (2016)
Degree Days  
Heating Degree Days 18    
Moisture  
Dew Point 27 °F    
Average Humidity 55    
Maximum Humidity 81    
Minimum Humidity 28    
Precipitation  
Precipitation 0.00 in - - ()
Sea Level Pressure  
Sea Level Pressure 30.19 in    
Wind  
Wind Speed 21 mph (NNW)    
Max Wind Speed 33 mph    
Max Gust Speed 46 mph    
Visibility 10 miles    
Events      
Averages and records for this station are not official NWS values.
T = Trace of Precipitation, MM = Missing Value Source: NWS Daily Summary

Daily Weather History Graph

Daily Weather History Graph

Search for Another Location

Airport or City:

Trip Planner

Search our weather history database for the weather conditions in past years. The results will help you decide how hot, cold, wet, or windy it might be!

Date:

Astronomy

Apr. 30, 2014 Rise Set
Actual Time 5:49 AM MDT 7:44 PM MDT
Civil Twilight 5:19 AM MDT 8:13 PM MDT
Nautical Twilight 4:43 AM MDT 8:49 PM MDT
Astronomical Twilight 4:05 AM MDT 9:28 PM MDT
Moon 6:51 AM MDT (4/30) 9:25 PM MDT (4/30)
Length of Visible Light 14h 53m
Length of Day
13h 54m
Waxing Crescent, 3% of the Moon is Illuminated
Apr 30
Waxing Crescent
May 6
First Quarter
May 14
Full
May 21
Last Quarter
May 28
New

Hourly Weather History & Observations

Time (MDT) Temp. Windchill Dew Point Humidity Pressure Visibility Wind Dir Wind Speed Gust Speed Precip Events Conditions
12:15 AM 37.4 °F 27.5 °F 32.0 °F 81% 30.21 in 10.0 mi NNW 18.4 mph 23.0 mph N/A   Mostly Cloudy
12:35 AM 37.4 °F 26.6 °F 32.0 °F 81% 30.21 in 10.0 mi NNW 21.9 mph 27.6 mph N/A   Mostly Cloudy
12:55 AM 37.4 °F 27.5 °F 32.0 °F 81% 30.21 in 10.0 mi NNW 18.4 mph 25.3 mph N/A   Overcast
1:15 AM 37.4 °F 27.5 °F 32.0 °F 81% 30.21 in 10.0 mi NNW 18.4 mph 25.3 mph N/A   Overcast
1:35 AM 37.4 °F 26.9 °F 32.0 °F 81% 30.21 in 10.0 mi NNW 20.7 mph 24.2 mph N/A   Overcast
1:55 AM 37.4 °F 28.9 °F 32.0 °F 81% 30.21 in 10.0 mi NW 13.8 mph - N/A   Overcast
2:15 AM 37.4 °F 28.2 °F 32.0 °F 81% 30.21 in 10.0 mi NNW 16.1 mph - N/A   Overcast
2:35 AM 37.4 °F 27.8 °F 32.0 °F 81% 30.21 in 10.0 mi NNW 17.3 mph 23.0 mph N/A   Overcast
2:55 AM 37.4 °F 27.8 °F 32.0 °F 81% 30.21 in 10.0 mi NNW 17.3 mph 25.3 mph N/A   Overcast
3:15 AM 37.4 °F 27.8 °F 32.0 °F 81% 30.21 in 10.0 mi NNW 17.3 mph 21.9 mph N/A   Overcast
3:35 AM 37.4 °F 28.5 °F 32.0 °F 81% 30.21 in 10.0 mi NNW 15.0 mph 20.7 mph N/A   Overcast
3:55 AM 37.4 °F 28.5 °F 32.0 °F 81% 30.21 in 10.0 mi NW 15.0 mph 21.9 mph N/A   Overcast
4:15 AM 37.4 °F 28.5 °F 32.0 °F 81% 30.21 in 10.0 mi NW 15.0 mph 24.2 mph N/A   Overcast
4:35 AM 37.4 °F 28.2 °F 30.2 °F 75% 30.21 in 10.0 mi NW 16.1 mph 20.7 mph N/A   Overcast
4:55 AM 37.4 °F 27.5 °F 30.2 °F 75% 30.21 in 10.0 mi NW 18.4 mph 23.0 mph N/A   Overcast
5:15 AM 37.4 °F 27.5 °F 30.2 °F 75% 30.21 in 10.0 mi NW 18.4 mph 25.3 mph N/A   Overcast
5:35 AM 37.4 °F 28.9 °F 32.0 °F 81% 30.21 in 10.0 mi NW 13.8 mph 24.2 mph N/A   Overcast
5:55 AM 35.6 °F 25.5 °F 30.2 °F 81% 30.21 in 10.0 mi NW 17.3 mph 27.6 mph N/A   Overcast
6:15 AM 35.6 °F 25.9 °F 28.4 °F 75% 30.21 in 10.0 mi NW 16.1 mph 26.5 mph N/A   Mostly Cloudy
6:35 AM 35.6 °F 25.5 °F 28.4 °F 75% 30.22 in 10.0 mi NW 17.3 mph 24.2 mph N/A   Mostly Cloudy
6:55 AM 35.6 °F 24.2 °F 28.4 °F 75% 30.21 in 10.0 mi NW 21.9 mph 26.5 mph N/A   Scattered Clouds
7:15 AM 37.4 °F 26.6 °F 28.4 °F 70% 30.21 in 10.0 mi NW 21.9 mph 31.1 mph N/A   Clear
7:35 AM 37.4 °F 25.4 °F 26.6 °F 65% 30.21 in 10.0 mi NW 27.6 mph 35.7 mph N/A   Clear
7:55 AM 41.0 °F 30.7 °F 26.6 °F 57% 30.21 in 10.0 mi NW 25.3 mph 36.8 mph N/A   Mostly Cloudy
8:15 AM 41.0 °F 29.5 °F 26.6 °F 57% 30.21 in 10.0 mi NNW 32.2 mph 39.1 mph N/A   Scattered Clouds
8:35 AM 41.0 °F 29.5 °F 24.8 °F 53% 30.21 in 10.0 mi NNW 32.2 mph 41.4 mph N/A   Mostly Cloudy
9:15 AM 44.6 °F 34.9 °F 26.6 °F 49% 30.21 in 10.0 mi NNW 28.8 mph 35.7 mph N/A   Overcast
9:35 AM 42.8 °F 32.3 °F 26.6 °F 53% 30.21 in 10.0 mi NNW 29.9 mph 35.7 mph N/A   Overcast
9:55 AM 42.8 °F 32.3 °F 26.6 °F 53% 30.21 in 10.0 mi North 29.9 mph 35.7 mph N/A   Overcast
10:15 AM 42.8 °F 32.9 °F 26.6 °F 53% 30.21 in 10.0 mi NNW 26.5 mph 33.4 mph N/A   Overcast
10:35 AM 42.8 °F 32.7 °F 26.6 °F 53% 30.21 in 10.0 mi NNW 27.6 mph 36.8 mph N/A   Overcast
10:55 AM 44.6 °F 35.5 °F 24.8 °F 46% 30.21 in 10.0 mi NNW 25.3 mph 33.4 mph N/A   Overcast
11:15 AM 46.4 °F 37.7 °F 23.0 °F 40% 30.21 in 10.0 mi NNW 26.5 mph 35.7 mph N/A   Mostly Cloudy
11:35 AM 48.2 °F - 23.0 °F 37% 30.20 in 10.0 mi North 27.6 mph 38.0 mph N/A   Scattered Clouds
11:55 AM 50.0 °F - 24.8 °F 37% 30.19 in 10.0 mi NNW 24.2 mph 34.5 mph N/A   Scattered Clouds
12:15 PM 51.8 °F - 23.0 °F 33% 30.19 in 10.0 mi NNW 28.8 mph 38.0 mph N/A   Scattered Clouds
12:35 PM 51.8 °F - 26.6 °F 38% 30.18 in 10.0 mi NNW 23.0 mph 34.5 mph N/A   Scattered Clouds
12:55 PM 51.8 °F - 26.6 °F 38% 30.18 in 10.0 mi NNW 28.8 mph 38.0 mph N/A   Mostly Cloudy
1:15 PM 51.8 °F - 24.8 °F 35% 30.17 in 10.0 mi NNW 28.8 mph 35.7 mph N/A   Mostly Cloudy
1:35 PM 53.6 °F - 21.2 °F 28% 30.16 in 10.0 mi NNW 32.2 mph 41.4 mph N/A   Scattered Clouds
1:55 PM 53.6 °F - 21.2 °F 28% 30.16 in 10.0 mi NNW 29.9 mph 40.3 mph N/A   Scattered Clouds
2:15 PM 53.6 °F - 23.0 °F 30% 30.16 in 10.0 mi NNW 28.8 mph 41.4 mph N/A   Clear
2:35 PM 53.6 °F - 21.2 °F 28% 30.15 in 10.0 mi NNW 32.2 mph 38.0 mph N/A   Scattered Clouds
2:55 PM 55.4 °F - 23.0 °F 29% 30.14 in 10.0 mi NNW 25.3 mph 39.1 mph N/A   Scattered Clouds
3:15 PM 53.6 °F - 23.0 °F 30% 30.14 in 10.0 mi NNW 28.8 mph 35.7 mph N/A   Mostly Cloudy
3:35 PM 55.4 °F - 23.0 °F 29% 30.13 in 10.0 mi North 33.4 mph 41.4 mph N/A   Scattered Clouds
3:55 PM 59.0 °F - 26.6 °F 29% 30.12 in 10.0 mi NNW 33.4 mph 46.0 mph N/A   Mostly Cloudy
4:15 PM 55.4 °F - 23.0 °F 29% 30.12 in 10.0 mi NNW 28.8 mph 35.7 mph N/A   Mostly Cloudy
4:35 PM 53.6 °F - 23.0 °F 30% 30.13 in 10.0 mi NNW 24.2 mph 40.3 mph N/A   Mostly Cloudy
4:55 PM 55.4 °F - 24.8 °F 31% 30.13 in 10.0 mi NNW 28.8 mph 40.3 mph N/A   Scattered Clouds
5:15 PM 53.6 °F - 26.6 °F 35% 30.13 in 10.0 mi NNW 26.5 mph 36.8 mph N/A   Scattered Clouds
5:35 PM 53.6 °F - 28.4 °F 38% 30.14 in 10.0 mi NNW 27.6 mph 34.5 mph N/A   Mostly Cloudy
5:55 PM 53.6 °F - 28.4 °F 38% 30.14 in 10.0 mi NNW 24.2 mph 35.7 mph N/A   Mostly Cloudy
6:15 PM 53.6 °F - 28.4 °F 38% 30.14 in 10.0 mi NNW 28.8 mph 35.7 mph N/A   Mostly Cloudy
6:35 PM 53.6 °F - 30.2 °F 41% 30.14 in 10.0 mi NNW 28.8 mph 34.5 mph N/A   Overcast
6:55 PM 51.8 °F - 28.4 °F 41% 30.15 in 10.0 mi NNW 28.8 mph 38.0 mph N/A   Overcast
7:15 PM 48.2 °F - 28.4 °F 46% 30.16 in 10.0 mi NNW 19.6 mph 29.9 mph N/A   Mostly Cloudy
7:35 PM 48.2 °F - 28.4 °F 46% 30.16 in 10.0 mi NNW 26.5 mph - N/A   Mostly Cloudy
7:55 PM 46.4 °F 39.0 °F 28.4 °F 50% 30.17 in 10.0 mi NNW 19.6 mph 28.8 mph N/A   Overcast
8:15 PM 46.4 °F 40.1 °F 28.4 °F 50% 30.18 in 10.0 mi North 15.0 mph - N/A   Overcast
8:35 PM 46.4 °F 40.1 °F 26.6 °F 46% 30.19 in 10.0 mi North 15.0 mph 19.6 mph N/A   Overcast
8:55 PM 44.6 °F 37.8 °F 23.0 °F 43% 30.19 in 10.0 mi North 15.0 mph 19.6 mph N/A   Overcast
9:15 PM 44.6 °F 38.8 °F 24.8 °F 46% 30.20 in 10.0 mi North 11.5 mph - N/A   Overcast
9:35 PM 42.8 °F 37.5 °F 26.6 °F 53% 30.20 in 10.0 mi NW 9.2 mph - N/A   Overcast
9:55 PM 42.8 °F 37.5 °F 26.6 °F 53% 30.20 in 10.0 mi WNW 9.2 mph - N/A   Mostly Cloudy
10:15 PM 42.8 °F 37.0 °F 26.6 °F 53% 30.20 in 10.0 mi NW 10.4 mph - N/A   Mostly Cloudy
10:35 PM 42.8 °F 38.0 °F 26.6 °F 53% 30.20 in 10.0 mi WNW 8.1 mph - N/A   Mostly Cloudy
10:55 PM 41.0 °F 35.2 °F 28.4 °F 61% 30.20 in 10.0 mi WNW 9.2 mph - N/A   Clear
11:15 PM 41.0 °F 34.7 °F 28.4 °F 61% 30.20 in 10.0 mi NW 10.4 mph - N/A   Clear
11:35 PM 41.0 °F 35.2 °F 28.4 °F 61% 30.20 in 10.0 mi NW 9.2 mph - N/A   Clear
11:55 PM 41.0 °F 34.3 °F 30.2 °F 65% 30.19 in 10.0 mi NW 11.5 mph 16.1 mph N/A   Clear